Regional Weather Roundup
Issued by NWS Portland, ME

Home | Current Version | Previous Version | Text Only | Print | Product List | Glossary On
Versions: 1 2 3 4 5 6 7 8 9 10 11 12 13 14 15 16 17 18 19 20 21 22 23 24 25 26 27 28 29 30 31 32 33 34 35 36 37 38 39 40 41 42 43 44 45 46 47 48 49 50
000
ASUS41 KGYX 280810
RWRGYX
WEATHER ROUNDUP FOR MAINE AND NEW HAMPSHIRE
NATIONAL WEATHER SERVICE GRAY ME
300 AM EST FRI NOV 28 2014

MEZ002-005-006-010-012-015-018-020-021-024-026-027-029-280900-
MAINE

CITY           SKY/WX    TMP DP  RH WIND       PRES   REMARKS
PORTLAND       CLOUDY    28  20  71 N8        30.02S
SANFORD        MOCLDY    27  16  63 N8        30.01S
BAR HARBOR     PTCLDY    19  18  93 N5        30.03S
WISCASSET      CLOUDY    23  19  85 VRB3      30.04F
ROCKLAND       PTCLDY    27  18  69 NE7       30.02S
FRYEBURG       CLOUDY    24  21  88 CALM      30.01R
LEWISTONAUBURN CLOUDY    18  14  86 CALM      30.00F
AUGUSTA        PTCLDY    20  16  84 CALM      30.03S
WATERVILLE     PTCLDY    16  10  79 CALM      29.99S
BANGOR         CLOUDY    15  12  88 CALM      30.04R
GREENVILLE       N/A     18  11  74 NW6       29.91S
MILLINOCKET    PTCLDY    12   8  84 CALM      30.02R
HOULTON        CLEAR      6   3  87 CALM      29.99S
PRESQUE ISLE   PTCLDY     7   1  78 CALM      29.98F
FRENCHVILLE    MOCLDY     8   5  87 NW6       29.97F
CARIBOU        MOCLDY     9   5  84 N5        29.99F
$$

NHZ002-005-008-009-011-012-014-280900-
NEW HAMPSHIRE

CITY           SKY/WX    TMP DP  RH WIND       PRES   REMARKS
PORTSMOUTH     SNOWSHWR  28  22  80 N12       29.99F WCI  18
ROCHESTER      LGT SNOW  27  23  85 N5        30.00S FOG
NASHUA         LGT SNOW  28  27  96 CALM      30.02S FOG
MANCHESTER     LGT SNOW  28  25  88 N8        29.99F FOG
CONCORD        NOT AVBL
LACONIA        CLOUDY    27  25  93 CALM      29.98R
PLYMOUTH       LGT SNOW  26  26 100 CALM      29.99S
BERLIN         MOCLDY    15  13  91 CALM      29.96F
WHITEFIELD     LGT SNOW  23  20  88 CALM      29.97S FOG
JAFFREY        LGT SNOW  25  23  92 CALM      29.97S FOG
LEBANON        LGT SNOW  25  22  88 CALM      30.00S FOG
MT WASHINGTON  SNOW       7   7 100 SW25        N/A  VSB 1/16WCI -15
$$

VTZ005-007-008-280900-
VERMONT

CITY           SKY/WX    TMP DP  RH WIND       PRES   REMARKS
ST JOHNSBURY     N/A     25  21  85 MISG      29.98F
MONTPELIER     CLOUDY    18  16  92 CALM      30.01S FOG
BURLINGTON     LGT SNOW  25  22  88 CALM      30.04S FOG
$$

MAZ007-012-024-CTZ003-RIZ002-NYZ038-NYZ072-280900-
SOUTHERN NEW ENGLAND AND NY

CITY           SKY/WX    TMP DP  RH WIND       PRES   REMARKS
BOSTON         LGT SNOW  30  28  92 NW9       30.00S VSB 1
WORCESTER      CLOUDY    26  24  92 NW6       29.95S
NANTUCKET      CLOUDY    38  35  89 NW16      29.92S
PROVIDENCE     CLOUDY    31  26  82 N10       29.99S
HARTFORD       CLOUDY    32  27  81 NW5       30.02S
ALBANY         FLURRIES  28  25  88 CALM      30.06R
NEW YORK CITY  PTCLDY    32  24  72 NW13      30.08R
$$

ANZ081-ANZ082-ANZ150-NHZ014-MEZ023>029-280900-
COASTAL MARINE OBSERVATIONS

STATION/POSITION TIME  TEMP    WIND        PRES    WAVE
                       AIR SEA DIR/SP/G            HT/PER
                 (UTC) (F)     (DEG/KT/KT) (MB)    (FT/S)
MOUNT DESERT ROC 0800   30                 1015.3F
MATINICUS ROCK   0800           20/ 18/ 20 1015.2F
PORTLAND WX BUOY 0750   31 49   40/ 16/ 19 1015.4S   4/ 4
WELLS            0700   29 45   20/  8/  9 1015.6R
ISLE OF SHOALS   0800   30     360/ 17/ 20 1014.8S
JEFFREYS LEDGE   0721      51                N/A     5/11
CASHES LEDGE BUO 0750   37 50   50/ 17/ 19 1013.4F   4/10
$$

.............KEY..............
   WCI - WIND CHILL
   TC  - TEMPERATURE IN CELSIUS
   VSB - VISIBILITY IN MILES
   HX  - HEAT INDEX
   FAIR- INDICATES FEW OR NO CLOUDS BELOW 12,000 FT, WITH NO
         SIGNIFICANT WEATHER AND/OR OBSTRUCTIONS TO VISIBILITY.




USA.gov is the U.S. government's official web portal to all federal, state and local government web resources and services.